Location: Balaclava NSW 2575, Australia
(34.4510°S, 150.4953°E)
Time: 21:16:06
(UTC+10:00)

Hubble Space Telescope - Pass Details

Date: 25 May 2021
Orbit: 535 x 539 km, 28.5° (Epoch: 19 June)

Event Time Altitude Azimuth Distance (km) Brightness Sun altitude
Rises 18:17:21 0° 278° (W) 2,688 6.1 -16.1°
Reaches altitude 10° 18:19:58 10° 293° (WNW) 1,796 4.7 -16.7°
Maximum altitude 18:23:14 22° 344° (NNW) 1,195 2.8 -17.3°
Enters shadow 18:26:25 10° 36° (NE) 1,768 3.2 -17.9°
